[[{"header":{"parameterUnit":"m.s-1","parameterCategory":2,"la1":30.2991,"la2":30.254,"lo1":-89.0895,"lo2":-89.0444,"dy":0.0017,"dx":0.0017,"nx":28,"ny":28,"refTime":"2023-07-25T03:00:00:Z","depth":"0","parameterNumber":2,"parameterNumberName":"U-component_of_CURRENTS"},"data":[0,0,0,0,0,0,0,0,0,0,0,0,0,0,0,0,0,0,0,0,0,0,0,0,0,0,0,0,0,0,0,0,0,0,0,0,0,0,0,0,0,0,0,0,0,0,0,0,0,0,0,0,0,0,0,0,0,0,-0.0186,-0.0187,0,-0.0362,-0.0364,-0.0366,-0.0393,-0.0392,-0.039,-0.0389,-0.0368,-0.0369,-0.037,0,0,0,0,0,0,0,0,0,0,0,0,0,0.001,0.0007,-0.0185,-0.0188,-0.019,-0.0361,-0.0364,-0.0366,-0.0394,-0.0392,-0.039,-0.0388,-0.0368,-0.0369,-0.037,0,0,0,0,0,0,0,0,0,0,0,0,0,-0.0111,0.0006,-0.0185,-0.0224,-0.0229,-0.0361,-0.0364,-0.0367,-0.0394,-0.0392,-0.0389,-0.0387,-0.0367,-0.0369,-0.037,-0.0426,0,0,-0.0374,-0.0375,0,0,0,0,0,0,0,0,-0.0104,-0.0119,-0.0216,-0.0221,-0.0228,-0.0353,-0.0288,-0.0377,-0.0395,-0.0332,-0.0389,-0.0386,-0.0346,-0.0349,-0.0391,-0.0425,-0.0424,-0.0374,-0.0375,-0.0376,-0.0376,0,0,0,0,0,0,0,-0.0096,-0.0112,-0.0255,-0.0219,-0.0226,-0.0273,-0.0286,-0.0306,-0.0347,-0.0337,-0.0339,-0.0359,-0.0348,-0.039,-0.039,-0.0424,-0.0374,-0.0375,-0.0376,-0.0377,-0.0465,-0.0467,0,0,0,0,0,0,-0.0071,-0.0104,-0.025,-0.0261,-0.0159,-0.0278,-0.0293,-0.0315,-0.0351,-0.0356,-0.0361,-0.036,-0.0389,-0.0388,-0.0389,-0.0425,-0.0376,-0.0377,-0.0378,-0.0464,-0.0466,-0.0467,0,0,0,0,0,0,-0.0066,-0.0082,-0.0243,-0.0186,-0.0209,-0.0283,-0.0308,-0.032,-0.0351,-0.0371,-0.0372,-0.0377,-0.0387,-0.0387,-0.0425,-0.0425,-0.0378,-0.0379,-0.0462,-0.0464,-0.0466,-0.0517,0,0,0,0,0,0,-0.006,-0.008,-0.0104,-0.0184,-0.0211,-0.0322,-0.0311,-0.0325,-0.0367,-0.0367,-0.0386,-0.0383,-0.0385,-0.0423,-0.0426,-0.0426,-0.038,-0.046,-0.0463,-0.0466,-0.0513,-0.0521,-0.0527,0,0,0,0,0,-0.0052,-0.01,-0.0104,-0.0122,-0.0236,-0.0323,-0.0343,-0.0387,-0.037,-0.0401,-0.042,-0.0381,-0.0441,-0.0427,-0.043,-0.0429,-0.0459,-0.0462,-0.0466,-0.051,-0.0519,-0.0527,0,0,0,0,0,0,-0.0035,-0.011,-0.0115,-0.0184,-0.0243,-0.0327,-0.0369,-0.0387,-0.0433,-0.0419,-0.0422,-0.0423,-0.0457,-0.0444,-0.0428,-0.0464,-0.0435,-0.044,-0.0468,-0.0476,-0.0483,-0.0473,-0.0381,0,0,0,0,0,-0.0039,-0.0087,-0.0157,-0.021,-0.0235,-0.0296,-0.0338,-0.0362,-0.0409,-0.0427,-0.0453,-0.0463,-0.0481,-0.0477,-0.0506,-0.053,-0.0512,-0.0526,-0.0533,-0.0538,-0.0534,-0.0535,-0.0541,-0.0479,-0.0479,-0.0478,0,0,-0.0041,-0.0094,-0.0117,-0.0208,-0.0253,-0.0308,-0.0315,-0.0375,-0.0417,-0.0415,-0.0485,-0.0501,-0.0499,-0.0539,-0.0547,-0.0519,-0.0549,-0.0543,-0.0547,-0.0539,-0.0539,-0.0545,-0.055,-0.0481,-0.048,-0.048,0,0,-0.007,-0.0115,-0.0156,-0.0205,-0.0275,-0.0323,-0.0332,-0.0417,-0.0447,-0.0521,-0.052,-0.0549,-0.0589,-0.0597,-0.0596,-0.0655,-0.0599,-0.064,-0.0649,-0.0651,-0.0655,-0.0659,-0.0648,-0.065,-0.0625,-0.0625,-0.0626,0,-0.0072,-0.0126,-0.0184,-0.0233,-0.0269,-0.0321,-0.0359,-0.042,-0.051,-0.0526,-0.054,-0.0609,-0.0619,-0.0633,-0.0659,-0.0668,-0.0649,-0.0616,-0.0658,-0.0661,-0.0664,-0.0651,-0.0653,-0.0628,-0.0628,-0.0628,-0.0627,0,-0.0123,-0.0161,-0.019,-0.0261,-0.0318,-0.0361,-0.0433,-0.0487,-0.0525,-0.0571,-0.0622,-0.067,-0.0685,-0.0701,-0.07,-0.0714,-0.0688,-0.068,-0.0633,-0.0673,-0.0658,-0.0659,-0.0632,-0.0631,-0.0631,-0.063,0,0,-0.0125,-0.0206,-0.0213,-0.0227,-0.0324,-0.0371,-0.044,-0.0508,-0.053,-0.062,-0.0645,-0.0714,-0.0716,-0.0716,-0.0717,-0.0731,-0.0754,-0.0707,-0.0706,-0.0687,-0.0738,-0.0673,-0.0668,-0.0741,-0.0742,-0.0742,-0.0719,0,-0.0135,-0.0199,-0.0254,-0.0307,-0.0331,-0.0394,-0.0453,-0.0517,-0.0579,-0.0629,-0.0661,-0.0701,-0.0723,-0.0722,-0.0741,-0.076,-0.0757,-0.076,-0.0708,-0.0707,-0.0637,-0.0668,-0.0524,-0.0487,-0.072,-0.072,-0.072,0,-0.0156,-0.019,-0.0237,-0.0288,-0.0306,-0.0356,-0.0425,-0.0486,-0.0557,-0.0593,-0.0628,-0.0662,-0.07,-0.0713,-0.0749,-0.0742,-0.0735,-0.0752,-0.0751,-0.067,-0.0644,-0.0485,-0.048,-0.0407,-0.0721,-0.0721,-0.0721,0,-0.011,-0.0174,-0.0202,-0.0225,-0.0308,-0.0331,-0.0378,-0.046,-0.05,-0.056,-0.0587,-0.0634,-0.0662,-0.0679,-0.0718,-0.0725,-0.0746,-0.0756,-0.0688,-0.0683,-0.0541,-0.0522,-0.0449,-0.0759,-0.0759,-0.0759,-0.0759,0,-0.0102,-0.0119,-0.0171,-0.0192,-0.0211,-0.028,-0.032,-0.0374,-0.0437,-0.047,-0.0548,-0.0581,-0.0657,-0.0683,-0.0699,-0.0692,-0.0721,-0.069,-0.0674,-0.0555,-0.0539,-0.0453,-0.0538,-0.0758,-0.0758,-0.0758,-0.0758,0,-0.0064,-0.01,-0.0126,-0.0184,-0.0195,-0.0211,-0.0279,-0.0302,-0.0375,-0.0417,-0.0432,-0.0541,-0.0578,-0.0628,-0.0665,-0.0666,-0.0645,-0.0642,-0.0494,-0.0461,-0.0342,-0.0439,-0.0494,-0.0477,-0.0576,-0.0574,-0.0573,0,-0.0062,-0.0063,-0.0109,-0.0112,-0.014,-0.0164,-0.0177,-0.0253,-0.0278,-0.039,-0.0393,-0.0465,-0.0486,-0.0523,-0.0526,-0.0512,-0.0559,-0.0388,-0.039,-0.0309,-0.0406,-0.0514,-0.0504,-0.0223,-0.0219,-0.0216,-0.0213,0,-0.0037,-0.0048,-0.0068,-0.0063,-0.0071,-0.0091,-0.0112,-0.0123,-0.0207,-0.0241,-0.0288,-0.0317,-0.0358,-0.0309,-0.0312,-0.0294,-0.0366,-0.0318,-0.0267,-0.0157,-0.024,-0.0219,-0.0268,-0.0183,-0.0186,-0.0188,-0.0189,-0.0191,-0.0014,-0.0008,-0.0016,-0.0002,-0.0015,-0.0014,-0.0013,-0.0027,-0.0045,-0.0078,-0.0134,-0.0117,-0.0088,-0.0079,-0.0064,0.0053,-0.0171,0.0084,-0.0049,-0.0169,-0.0131,-0.0113,0.0005,0.0003,0.0002,0.0,-0.0001,0,0.0009,0.0034,0.0051,0.0053,0.0056,0.0035,0.0033,0.0044,0.0059,0.0075,0.0075,0.0195,0.0285,0.0307,0.0406,0.0383,0.0306,0.0321,0.0239,0.0229,0.0278,0.0327,0.0562,0.0562,0.0562,0.0562,0.0562,0.0561,0.0019,0.0052,0.0079,0.0125,0.0124,0.0129,0.013,0.0157,0.0183,0.0275,0.0362,0.0398,0.0497,0.0583,0.0672,0.0623,0.0489,0.0379,0.0264,0.0368,0.0338,0.0309,0.0348,0.0582,0.0582,0.0356,0.0354,0.0352]},{"header":{"parameterUnit":"m.s-1","parameterCategory":2,"la1":30.2991,"la2":30.254,"lo1":-89.0895,"lo2":-89.0444,"dy":0.0017,"dx":0.0017,"nx":28,"ny":28,"refTime":"2023-07-25T03:00:00:Z","depth":"0","parameterNumber":3,"parameterNumberName":"V-component_of_CURRENTS"},"data":[0,0,0,0,0,0,0,0,0,0,0,0,0,0,0,0,0,0,0,0,0,0,0,0,0,0,0,0,0,0,0,0,0,0,0,0,0,0,0,0,0,0,0,0,0,0,0,0,0,0,0,0,0,0,0,0,0,0,-0.067,-0.067,0,-0.0604,-0.0602,-0.0601,-0.0526,-0.0526,-0.0525,-0.0524,-0.041,-0.0407,-0.0405,0,0,0,0,0,0,0,0,0,0,0,0,0,-0.0684,-0.0684,-0.067,-0.067,-0.0669,-0.0604,-0.0602,-0.0601,-0.0526,-0.0526,-0.0525,-0.0524,-0.0411,-0.0408,-0.0405,0,0,0,0,0,0,0,0,0,0,0,0,0,-0.0648,-0.0684,-0.067,-0.0629,-0.0625,-0.0604,-0.0602,-0.06,-0.0526,-0.0525,-0.0525,-0.0524,-0.0412,-0.0408,-0.0404,-0.0397,0,0,-0.0392,-0.0391,0,0,0,0,0,0,0,0,-0.065,-0.0647,-0.0635,-0.0632,-0.0628,-0.0578,-0.0565,-0.0532,-0.0527,-0.0557,-0.0524,-0.0524,-0.0466,-0.0458,-0.0439,-0.0391,-0.0386,-0.0392,-0.039,-0.0388,-0.0387,0,0,0,0,0,0,0,-0.0653,-0.0649,-0.0637,-0.0635,-0.0631,-0.0598,-0.0592,-0.0558,-0.0511,-0.0554,-0.055,-0.0553,-0.0463,-0.0443,-0.0436,-0.0385,-0.0392,-0.0389,-0.0386,-0.0385,-0.0312,-0.0312,0,0,0,0,0,0,-0.0677,-0.0652,-0.064,-0.0636,-0.0644,-0.0599,-0.0592,-0.0589,-0.0512,-0.0502,-0.0554,-0.055,-0.045,-0.044,-0.0431,-0.0405,-0.0388,-0.0385,-0.0382,-0.0312,-0.0312,-0.0313,0,0,0,0,0,0,-0.0678,-0.0677,-0.0642,-0.0647,-0.0642,-0.0601,-0.0598,-0.0589,-0.056,-0.0514,-0.0501,-0.0535,-0.0449,-0.0437,-0.0399,-0.0401,-0.0383,-0.0379,-0.0311,-0.0312,-0.0312,-0.0361,0,0,0,0,0,0,-0.0678,-0.0677,-0.0673,-0.0649,-0.0643,-0.0631,-0.0599,-0.0588,-0.0567,-0.056,-0.0494,-0.0483,-0.0447,-0.0405,-0.0395,-0.0395,-0.0376,-0.0311,-0.0312,-0.0312,-0.0359,-0.0363,-0.0367,0,0,0,0,0,-0.0679,-0.0682,-0.0673,-0.0672,-0.0642,-0.0632,-0.0624,-0.0588,-0.0567,-0.0557,-0.0514,-0.0484,-0.0403,-0.0402,-0.0391,-0.0389,-0.031,-0.0311,-0.0312,-0.0358,-0.0363,-0.0367,0,0,0,0,0,0,-0.068,-0.0675,-0.0664,-0.0663,-0.0651,-0.0621,-0.0618,-0.0589,-0.0546,-0.0546,-0.0485,-0.0471,-0.0439,-0.0411,-0.0412,-0.0372,-0.0354,-0.0352,-0.0392,-0.0396,-0.04,-0.0426,-0.0373,0,0,0,0,0,-0.0684,-0.069,-0.0675,-0.0677,-0.0677,-0.0646,-0.0635,-0.0617,-0.0585,-0.0564,-0.0508,-0.0466,-0.0436,-0.0413,-0.0379,-0.0355,-0.0345,-0.0349,-0.0353,-0.0356,-0.037,-0.0369,-0.0374,-0.0315,-0.0315,-0.0315,0,0,-0.0693,-0.0687,-0.0693,-0.0679,-0.0671,-0.0657,-0.0636,-0.0636,-0.0616,-0.0561,-0.0508,-0.0475,-0.0433,-0.0406,-0.039,-0.038,-0.0365,-0.0357,-0.0361,-0.0373,-0.037,-0.0376,-0.0381,-0.0316,-0.0316,-0.0316,0,0,-0.0713,-0.0707,-0.0716,-0.0711,-0.0709,-0.0679,-0.0679,-0.0645,-0.0626,-0.0587,-0.0546,-0.0528,-0.0449,-0.0436,-0.0418,-0.0428,-0.0386,-0.04,-0.0437,-0.0435,-0.044,-0.0445,-0.0428,-0.0431,-0.0401,-0.0402,-0.0402,0,-0.0708,-0.0722,-0.0717,-0.0721,-0.0713,-0.0687,-0.0682,-0.0662,-0.0611,-0.0605,-0.0578,-0.0508,-0.0475,-0.0465,-0.0463,-0.0439,-0.0416,-0.0422,-0.0442,-0.0446,-0.045,-0.0432,-0.0434,-0.0404,-0.0404,-0.0404,-0.0403,0,-0.0738,-0.0741,-0.0753,-0.0737,-0.0721,-0.0728,-0.0702,-0.0678,-0.0643,-0.0623,-0.0606,-0.0571,-0.0534,-0.0519,-0.0488,-0.0496,-0.0463,-0.0448,-0.0433,-0.0459,-0.0438,-0.0439,-0.0408,-0.0407,-0.0406,-0.0405,0,0,-0.0719,-0.0762,-0.076,-0.0762,-0.0736,-0.0724,-0.0706,-0.0682,-0.0679,-0.0644,-0.0638,-0.0609,-0.0603,-0.0585,-0.0555,-0.0553,-0.0557,-0.0506,-0.0505,-0.0496,-0.0529,-0.0536,-0.0537,-0.0532,-0.0533,-0.0533,-0.05,0,-0.0728,-0.0757,-0.0758,-0.0749,-0.0755,-0.073,-0.071,-0.0693,-0.0672,-0.0657,-0.0666,-0.0646,-0.0625,-0.061,-0.0613,-0.0567,-0.0563,-0.0566,-0.0501,-0.0499,-0.0507,-0.0541,-0.0453,-0.042,-0.0502,-0.0502,-0.0502,0,-0.0727,-0.0752,-0.0771,-0.0771,-0.0769,-0.0748,-0.0717,-0.0702,-0.07,-0.0697,-0.0704,-0.0689,-0.0693,-0.0667,-0.0642,-0.0633,-0.059,-0.056,-0.0557,-0.0552,-0.051,-0.0408,-0.0419,-0.0227,-0.0504,-0.0504,-0.0504,0,-0.0707,-0.0734,-0.0752,-0.0757,-0.076,-0.0752,-0.0729,-0.0718,-0.0718,-0.0724,-0.0724,-0.0732,-0.0723,-0.0696,-0.0646,-0.063,-0.0608,-0.058,-0.055,-0.0549,-0.046,-0.0451,-0.0288,-0.0567,-0.0567,-0.0568,-0.0568,0,-0.0692,-0.0696,-0.0756,-0.0767,-0.0769,-0.0764,-0.0757,-0.0744,-0.0752,-0.0758,-0.0751,-0.0757,-0.0725,-0.0705,-0.0661,-0.0623,-0.0626,-0.0572,-0.0552,-0.0474,-0.0466,-0.0285,-0.0242,-0.0566,-0.0567,-0.0567,-0.0567,0,-0.0648,-0.0695,-0.0716,-0.0756,-0.0764,-0.0759,-0.076,-0.0763,-0.0771,-0.0777,-0.0776,-0.0769,-0.0756,-0.0727,-0.0677,-0.0638,-0.052,-0.058,-0.0489,-0.0461,-0.0273,-0.0239,-0.0209,-0.0128,-0.0547,-0.0547,-0.0548,0,-0.063,-0.0649,-0.0708,-0.0723,-0.0737,-0.0748,-0.0752,-0.0764,-0.0774,-0.0783,-0.0788,-0.078,-0.0779,-0.0732,-0.0679,-0.0629,-0.051,-0.0481,-0.0459,-0.0265,-0.021,-0.0236,-0.017,-0.0341,-0.034,-0.0338,-0.0337,0,-0.0589,-0.0616,-0.0644,-0.0694,-0.071,-0.0724,-0.0739,-0.0756,-0.0772,-0.0786,-0.08,-0.08,-0.0775,-0.0712,-0.0649,-0.0575,-0.0363,-0.0456,-0.0264,-0.0062,-0.007,0.0021,-0.0349,-0.0326,-0.0327,-0.0328,-0.0328,-0.0329,-0.0551,-0.0565,-0.0619,-0.0651,-0.067,-0.0688,-0.0693,-0.0722,-0.0741,-0.0753,-0.0792,-0.0783,-0.0691,-0.0622,-0.051,-0.0208,-0.0325,-0.007,-0.0051,-0.0099,-0.0011,-0.0373,-0.0331,-0.0332,-0.0333,-0.0334,-0.0335,0,-0.0515,-0.0541,-0.0571,-0.0615,-0.062,-0.0645,-0.0673,-0.068,-0.0699,-0.0712,-0.0736,-0.0675,-0.0494,-0.0317,-0.0003,0.0207,0.0255,0.0339,0.0397,0.0442,0.0155,0.0182,0.0347,0.0347,0.0347,0.0347,0.0347,0.0347,-0.05,-0.052,-0.055,-0.0562,-0.0583,-0.0583,-0.0594,-0.0613,-0.0622,-0.0606,-0.0585,-0.0583,-0.0323,0.0134,0.0608,0.0692,0.0846,0.0774,0.0824,0.0739,0.0706,0.0674,0.0718,0.0993,0.0994,0.1158,0.116,0.1162]}],[{"header":{"parameterUnit":"m.s-1","parameterCategory":2,"la1":30.2991,"la2":30.254,"lo1":-89.0895,"lo2":-89.0444,"dy":0.0017,"dx":0.0017,"nx":28,"ny":28,"refTime":"2023-07-25T03:00:00:Z","depth":"2","parameterNumber":2,"parameterNumberName":"U-component_of_CURRENTS"},"data":[0,0,0,0,0,0,0,0,0,0,0,0,0,0,0,0,0,0,0,0,0,0,0,0,0,0,0,0,0,0,0,0,0,0,0,0,0,0,0,0,0,0,0,0,0,0,0,0,0,0,0,0,0,0,0,0,0,0,-0.2503,-0.2503,0,-0.2313,-0.2309,-0.2306,-0.2125,-0.2124,-0.2123,-0.2123,-0.223,-0.2233,-0.2237,0,0,0,0,0,0,0,0,0,0,0,0,0,-0.2636,-0.2633,-0.2503,-0.2503,-0.2502,-0.2313,-0.2309,-0.2305,-0.2125,-0.2124,-0.2123,-0.2122,-0.2229,-0.2233,-0.2237,0,0,0,0,0,0,0,0,0,0,0,0,0,-0.251,-0.2632,-0.2504,-0.2401,-0.2391,-0.2314,-0.2309,-0.2304,-0.2125,-0.2124,-0.2123,-0.2122,-0.2227,-0.2233,-0.2238,-0.2297,0,0,-0.2255,-0.2257,0,0,0,0,0,0,0,0,-0.2518,-0.2504,-0.2417,-0.2408,-0.2397,-0.2255,-0.2396,-0.2322,-0.2126,-0.2209,-0.2123,-0.2121,-0.2278,-0.2278,-0.2219,-0.2302,-0.2306,-0.2255,-0.2258,-0.2261,-0.2262,0,0,0,0,0,0,0,-0.2527,-0.2511,-0.2412,-0.2416,-0.2404,-0.2339,-0.2319,-0.2378,-0.2246,-0.2202,-0.2192,-0.2197,-0.2271,-0.2213,-0.2221,-0.2308,-0.2255,-0.226,-0.2263,-0.2265,-0.2423,-0.2424,0,0,0,0,0,0,-0.2587,-0.2519,-0.2418,-0.2408,-0.2473,-0.234,-0.2316,-0.2289,-0.2239,-0.2232,-0.2198,-0.2189,-0.2205,-0.2215,-0.2225,-0.226,-0.2261,-0.2266,-0.2269,-0.2422,-0.2423,-0.2424,0,0,0,0,0,0,-0.259,-0.2578,-0.2426,-0.2474,-0.2452,-0.2341,-0.2311,-0.2286,-0.2188,-0.2235,-0.223,-0.2123,-0.2204,-0.2217,-0.2259,-0.2265,-0.2268,-0.2273,-0.2421,-0.2423,-0.2424,-0.2354,0,0,0,0,0,0,-0.2594,-0.258,-0.2551,-0.2477,-0.2452,-0.2348,-0.2313,-0.2284,-0.2204,-0.2188,-0.2173,-0.2181,-0.2204,-0.2251,-0.2264,-0.2273,-0.2277,-0.242,-0.2422,-0.2423,-0.2355,-0.2353,-0.2351,0,0,0,0,0,-0.2598,-0.2554,-0.2549,-0.2537,-0.2424,-0.2348,-0.2324,-0.2233,-0.2201,-0.214,-0.2156,-0.2179,-0.2272,-0.2256,-0.2272,-0.2282,-0.2419,-0.2421,-0.2423,-0.2356,-0.2353,-0.2351,0,0,0,0,0,0,-0.2582,-0.2532,-0.2524,-0.2463,-0.2409,-0.2322,-0.2261,-0.2217,-0.2165,-0.2157,-0.2191,-0.2202,-0.2245,-0.228,-0.2261,-0.2335,-0.2351,-0.2356,-0.2294,-0.2292,-0.229,-0.2284,-0.2282,0,0,0,0,0,-0.2582,-0.2538,-0.2491,-0.2444,-0.2415,-0.2338,-0.2289,-0.2233,-0.22,-0.2165,-0.2172,-0.2208,-0.227,-0.229,-0.2337,-0.2379,-0.2355,-0.2399,-0.2396,-0.2394,-0.2402,-0.2358,-0.2351,-0.2431,-0.2431,-0.2431,0,0,-0.2575,-0.2539,-0.2516,-0.244,-0.2384,-0.2349,-0.2296,-0.2211,-0.2195,-0.2206,-0.2175,-0.2204,-0.2283,-0.2319,-0.2342,-0.2344,-0.2352,-0.2397,-0.2394,-0.2404,-0.2359,-0.2351,-0.2343,-0.2433,-0.2432,-0.2432,0,0,-0.2526,-0.2495,-0.2434,-0.2404,-0.2336,-0.2313,-0.2292,-0.2202,-0.2159,-0.2154,-0.2177,-0.2192,-0.226,-0.2296,-0.2341,-0.2363,-0.2346,-0.239,-0.2367,-0.2322,-0.2314,-0.2307,-0.2219,-0.2204,-0.2381,-0.2381,-0.2381,0,-0.2513,-0.2443,-0.2405,-0.2355,-0.2343,-0.2308,-0.2263,-0.2238,-0.2176,-0.2163,-0.2145,-0.2199,-0.2252,-0.2319,-0.2329,-0.2356,-0.2313,-0.2363,-0.2314,-0.2307,-0.23,-0.2212,-0.2197,-0.2378,-0.2378,-0.2378,-0.2379,0,-0.2428,-0.2385,-0.2349,-0.2305,-0.2285,-0.2235,-0.2241,-0.2207,-0.2182,-0.2159,-0.2164,-0.2196,-0.2225,-0.2249,-0.2308,-0.2311,-0.2286,-0.2313,-0.2305,-0.2287,-0.2196,-0.2181,-0.2373,-0.2374,-0.2375,-0.2376,0,0,-0.2361,-0.2298,-0.2289,-0.2269,-0.2254,-0.2225,-0.2243,-0.2223,-0.2214,-0.2172,-0.2141,-0.2224,-0.2197,-0.2248,-0.2287,-0.2259,-0.2169,-0.2269,-0.2268,-0.2155,-0.2025,-0.1929,-0.1903,-0.2176,-0.2174,-0.2173,-0.1961,0,-0.2296,-0.2209,-0.221,-0.2179,-0.2138,-0.217,-0.2194,-0.2194,-0.2189,-0.216,-0.2171,-0.2178,-0.2218,-0.2215,-0.2195,-0.2202,-0.2137,-0.2222,-0.2087,-0.2082,-0.1976,-0.1886,-0.1792,-0.1589,-0.1946,-0.1944,-0.1942,0,-0.2194,-0.2161,-0.209,-0.2105,-0.2093,-0.2083,-0.2108,-0.2125,-0.2135,-0.2125,-0.2114,-0.2132,-0.213,-0.2143,-0.2076,-0.2125,-0.2073,-0.2044,-0.2035,-0.1967,-0.1959,-0.1681,-0.1549,-0.1918,-0.192,-0.1921,-0.1923,0,-0.2127,-0.2084,-0.2029,-0.203,-0.2041,-0.2018,-0.2036,-0.2066,-0.2078,-0.2082,-0.2064,-0.2067,-0.2037,-0.1996,-0.1972,-0.2013,-0.1852,-0.1894,-0.1735,-0.1726,-0.1633,-0.1619,-0.1799,-0.1799,-0.18,-0.18,-0.1801,0,-0.2053,-0.2012,-0.1973,-0.1946,-0.191,-0.194,-0.1912,-0.1948,-0.1961,-0.1952,-0.2018,-0.1981,-0.2,-0.1937,-0.1914,-0.1759,-0.1791,-0.1698,-0.166,-0.1602,-0.1589,-0.1894,-0.1908,-0.1792,-0.1794,-0.1796,-0.1797,0,-0.1965,-0.1947,-0.1883,-0.1864,-0.1855,-0.1821,-0.1834,-0.1828,-0.1861,-0.1842,-0.1843,-0.1877,-0.1794,-0.1785,-0.1694,-0.1649,-0.1546,-0.148,-0.1391,-0.1347,-0.1454,-0.1468,-0.1257,-0.1251,-0.1247,-0.1243,-0.124,0,-0.1909,-0.1849,-0.1802,-0.1774,-0.1742,-0.1707,-0.1695,-0.1751,-0.1753,-0.176,-0.1736,-0.168,-0.1604,-0.143,-0.1356,-0.1227,-0.1364,-0.1078,-0.1153,-0.1411,-0.1397,-0.1417,-0.1436,-0.0978,-0.0973,-0.0969,-0.0966,0,-0.1809,-0.1768,-0.1726,-0.1658,-0.1618,-0.1607,-0.1582,-0.1582,-0.1637,-0.1615,-0.1542,-0.1468,-0.1301,-0.1146,-0.1018,-0.0937,-0.1104,-0.0986,-0.1249,-0.1149,-0.1137,-0.1128,-0.1157,-0.0929,-0.0933,-0.0935,-0.0937,-0.0939,-0.1719,-0.1669,-0.1598,-0.1536,-0.151,-0.1482,-0.1445,-0.1439,-0.1417,-0.1354,-0.1333,-0.1181,-0.1112,-0.0853,-0.0743,-0.0673,-0.0764,-0.0767,-0.0784,-0.0805,-0.0829,-0.0812,-0.0544,-0.0546,-0.0547,-0.0548,-0.0549,0,-0.1607,-0.1548,-0.1492,-0.1426,-0.1374,-0.1374,-0.1357,-0.1312,-0.1234,-0.115,-0.1033,-0.0856,-0.0704,-0.0659,-0.049,-0.0411,-0.0432,-0.0393,-0.0488,-0.0522,-0.0553,-0.0572,-0.0214,-0.0213,-0.0213,-0.0212,0,0,-0.1534,-0.1444,-0.1418,-0.1298,-0.1241,-0.1142,-0.1107,-0.106,-0.0992,-0.0838,-0.0731,-0.0666,-0.0647,-0.0482,-0.0392,-0.0304,-0.0402,-0.0239,-0.0506,-0.0653,-0.0684,-0.0757,-0.082,0,0,0,0,0]},{"header":{"parameterUnit":"m.s-1","parameterCategory":2,"la1":30.2991,"la2":30.254,"lo1":-89.0895,"lo2":-89.0444,"dy":0.0017,"dx":0.0017,"nx":28,"ny":28,"refTime":"2023-07-25T03:00:00:Z","depth":"2","parameterNumber":3,"parameterNumberName":"V-component_of_CURRENTS"},"data":[0,0,0,0,0,0,0,0,0,0,0,0,0,0,0,0,0,0,0,0,0,0,0,0,0,0,0,0,0,0,0,0,0,0,0,0,0,0,0,0,0,0,0,0,0,0,0,0,0,0,0,0,0,0,0,0,0,0,0.0608,0.0608,0,0.0499,0.0496,0.0494,0.0397,0.0397,0.0397,0.0397,0.0606,0.0612,0.0617,0,0,0,0,0,0,0,0,0,0,0,0,0,0.0694,0.0692,0.0608,0.0608,0.0607,0.0499,0.0496,0.0494,0.0397,0.0397,0.0397,0.0397,0.0604,0.0611,0.0618,0,0,0,0,0,0,0,0,0,0,0,0,0,0.0616,0.0691,0.0608,0.0555,0.0551,0.05,0.0496,0.0493,0.0397,0.0397,0.0397,0.0397,0.0602,0.061,0.0619,0.0669,0,0,0.0644,0.0648,0,0,0,0,0,0,0,0,0.062,0.0611,0.0563,0.0559,0.0554,0.0473,0.0604,0.0572,0.0397,0.0441,0.0397,0.0397,0.06,0.0608,0.0564,0.0678,0.0687,0.0645,0.065,0.0653,0.0656,0,0,0,0,0,0,0,0.0626,0.0615,0.0551,0.0563,0.0558,0.0526,0.0513,0.0595,0.0518,0.0438,0.0433,0.0442,0.0597,0.0556,0.057,0.0691,0.0644,0.0652,0.0657,0.066,0.0858,0.0859,0,0,0,0,0,0,0.0667,0.062,0.0555,0.0549,0.0602,0.0525,0.0511,0.0488,0.051,0.0514,0.0442,0.0438,0.0542,0.056,0.0578,0.0615,0.0653,0.0661,0.0666,0.0858,0.0859,0.0859,0,0,0,0,0,0,0.0668,0.0661,0.056,0.0595,0.0581,0.0525,0.0499,0.0486,0.0402,0.0512,0.0519,0.0369,0.0543,0.0566,0.0636,0.0625,0.0665,0.0672,0.0858,0.0858,0.0859,0.071,0,0,0,0,0,0,0.0671,0.0661,0.0625,0.0596,0.0581,0.0492,0.05,0.0484,0.0417,0.0408,0.0454,0.0474,0.0544,0.0623,0.0644,0.0637,0.0679,0.0857,0.0858,0.0859,0.0714,0.0705,0.0697,0,0,0,0,0,0.0673,0.0605,0.0622,0.0614,0.0543,0.0491,0.0475,0.043,0.0413,0.0355,0.0417,0.047,0.0642,0.063,0.0655,0.065,0.0857,0.0858,0.0858,0.0718,0.0707,0.0697,0,0,0,0,0,0,0.0604,0.059,0.0608,0.0535,0.0515,0.0478,0.0407,0.0399,0.0384,0.0378,0.0475,0.05,0.0565,0.063,0.0614,0.0712,0.0759,0.0764,0.0643,0.0634,0.0625,0.0617,0.0686,0,0,0,0,0,0.0589,0.0538,0.0539,0.048,0.0456,0.0429,0.0392,0.0373,0.0379,0.0361,0.0413,0.0492,0.059,0.0625,0.0712,0.0757,0.0816,0.0773,0.0764,0.0756,0.0768,0.0827,0.0824,0.0861,0.0861,0.0861,0,0,0.0554,0.0537,0.051,0.0465,0.0428,0.0393,0.0397,0.0321,0.0319,0.0405,0.0391,0.0468,0.0601,0.0656,0.0689,0.0703,0.0774,0.0757,0.0749,0.0766,0.0827,0.0824,0.082,0.0861,0.0861,0.0861,0,0,0.0451,0.0431,0.0354,0.0343,0.0306,0.0309,0.0285,0.0245,0.0236,0.0261,0.0341,0.0403,0.051,0.0598,0.0668,0.0668,0.0736,0.0687,0.0623,0.0678,0.0675,0.0673,0.0718,0.0721,0.0668,0.0668,0.0668,0,0.0408,0.033,0.0322,0.0265,0.0262,0.0273,0.0222,0.0223,0.0225,0.025,0.0247,0.0407,0.0494,0.0612,0.0603,0.0648,0.0681,0.0643,0.0663,0.0663,0.0663,0.071,0.0716,0.0661,0.0662,0.0662,0.0663,0,0.0278,0.0221,0.0165,0.013,0.0124,0.0067,0.012,0.011,0.0124,0.0156,0.0236,0.0337,0.0424,0.0465,0.0536,0.0592,0.0614,0.0648,0.0676,0.0649,0.0702,0.071,0.0651,0.0653,0.0655,0.0657,0,0,0.0174,0.0088,0.0074,0.0053,0.0053,0.0037,0.006,0.009,0.0106,0.0137,0.0174,0.0307,0.0321,0.0403,0.0482,0.0535,0.055,0.0568,0.0574,0.059,0.0652,0.0631,0.0639,0.0567,0.0568,0.0569,0.0676,0,0.0071,-0.0048,-0.0043,-0.0105,-0.0153,-0.0082,-0.0054,0.0002,0.0054,0.0095,0.0214,0.027,0.0313,0.0331,0.0388,0.0537,0.0569,0.0517,0.0698,0.0704,0.067,0.0648,0.0609,0.0698,0.0685,0.0686,0.0687,0,-0.0045,-0.0102,-0.0199,-0.0202,-0.0216,-0.0227,-0.0154,-0.013,-0.0021,0.0012,0.008,0.0165,0.0268,0.0289,0.0474,0.0428,0.0511,0.0615,0.0621,0.0667,0.07,0.0733,0.0715,0.0703,0.0701,0.07,0.0699,0,-0.0097,-0.0192,-0.0266,-0.027,-0.0277,-0.028,-0.0267,-0.0173,-0.014,-0.0059,-0.0036,0.0095,0.0165,0.0284,0.0453,0.0454,0.0661,0.0693,0.0758,0.0758,0.08,0.08,0.0798,0.0798,0.0797,0.0797,0.0797,0,-0.0187,-0.0243,-0.0311,-0.0345,-0.0391,-0.0362,-0.0373,-0.0329,-0.0263,-0.0211,-0.0122,-0.0034,0.0163,0.0308,0.0437,0.0612,0.0629,0.0752,0.0785,0.0744,0.0739,0.0814,0.0814,0.0801,0.08,0.08,0.0799,0,-0.0239,-0.0294,-0.0375,-0.0421,-0.043,-0.0463,-0.0457,-0.0445,-0.0404,-0.0328,-0.0315,-0.0119,0.0058,0.024,0.0488,0.0597,0.0766,0.0814,0.0743,0.0765,0.0834,0.0826,0.0914,0.0914,0.0914,0.0914,0.0914,0,-0.0281,-0.034,-0.0425,-0.0459,-0.0498,-0.0538,-0.0542,-0.0519,-0.0487,-0.0353,-0.0301,-0.013,0.0048,0.0363,0.059,0.0792,0.0767,0.0831,0.0833,0.0823,0.0846,0.0838,0.083,0.0832,0.0831,0.0831,0.0831,0,-0.0334,-0.0377,-0.0436,-0.0514,-0.0558,-0.0583,-0.0593,-0.0583,-0.0513,-0.0431,-0.0253,-0.0108,0.0192,0.0456,0.0668,0.0771,0.0791,0.0827,0.0855,0.0791,0.075,0.0771,0.0766,0.0826,0.0827,0.0827,0.0827,0.0828,-0.0354,-0.0406,-0.048,-0.0547,-0.0591,-0.06,-0.0596,-0.0559,-0.0483,-0.0329,-0.0199,0.0076,0.0249,0.0651,0.0709,0.0787,0.0858,0.085,0.085,0.0852,0.0805,0.0764,0.0836,0.0836,0.0836,0.0837,0.0837,0,-0.035,-0.0414,-0.0486,-0.0554,-0.0582,-0.0609,-0.0588,-0.0534,-0.0412,-0.0275,-0.0106,0.0206,0.0446,0.0593,0.0773,0.0839,0.082,0.0748,0.0721,0.0727,0.0732,0.0676,0.0675,0.0674,0.0673,0.0672,0,0,-0.0346,-0.041,-0.0455,-0.051,-0.0553,-0.0552,-0.0531,-0.0434,-0.0326,-0.0134,0.0085,0.0305,0.0543,0.0598,0.0612,0.0648,0.0632,0.0604,0.0736,0.0698,0.07,0.0807,0.0731,0,0,0,0,0]}],[{"header":{"parameterUnit":"m.s-1","parameterCategory":2,"la1":30.2991,"la2":30.254,"lo1":-89.0895,"lo2":-89.0444,"dy":0.0017,"dx":0.0017,"nx":28,"ny":28,"refTime":"2023-07-25T03:00:00:Z","depth":"4","parameterNumber":2,"parameterNumberName":"U-component_of_CURRENTS"},"data":[0,0,0,0,0,0,0,0,0,0,0,0,0,0,0,0,0,0,0,0,0,0,0,0,0,0,0,0,0,0,0,0,0,0,0,0,0,0,0,0,0,0,0,0,0,0,0,0,0,0,0,0,0,0,0,0,0,0,-0.0986,-0.0987,0,-0.1018,-0.1018,-0.1017,-0.1057,-0.1059,-0.106,-0.1061,-0.1194,-0.1197,-0.1199,0,0,0,0,0,0,0,0,0,0,0,0,0,-0.0889,-0.0891,-0.0986,-0.0987,-0.0988,-0.1018,-0.1018,-0.1017,-0.1057,-0.1059,-0.106,-0.1062,-0.1194,-0.1196,-0.1199,0,0,0,0,0,0,0,0,0,0,0,0,0,-0.092,-0.0891,-0.0985,-0.1017,-0.102,-0.1018,-0.1018,-0.1017,-0.1057,-0.1059,-0.1061,-0.1063,-0.1193,-0.1196,-0.1199,-0.1181,0,0,-0.121,-0.1212,0,0,0,0,0,0,0,0,-0.0919,-0.0923,-0.1011,-0.1015,-0.1019,-0.1042,-0.1033,-0.108,-0.1056,-0.1035,-0.1061,-0.1064,-0.1156,-0.1163,-0.1152,-0.1188,-0.1193,-0.121,-0.1212,-0.1214,-0.1215,0,0,0,0,0,0,0,-0.0916,-0.0921,-0.0991,-0.1012,-0.1017,-0.1006,-0.1012,-0.1041,-0.108,-0.1037,-0.1042,-0.1057,-0.1158,-0.1149,-0.1156,-0.1195,-0.121,-0.1213,-0.1216,-0.1217,-0.1352,-0.1353,0,0,0,0,0,0,-0.0929,-0.092,-0.099,-0.0993,-0.0981,-0.1007,-0.1014,-0.1027,-0.1078,-0.1089,-0.1055,-0.1059,-0.1142,-0.1152,-0.1161,-0.1274,-0.1214,-0.1217,-0.1219,-0.135,-0.1352,-0.1354,0,0,0,0,0,0,-0.0927,-0.0935,-0.0989,-0.0963,-0.097,-0.1008,-0.1021,-0.1026,-0.107,-0.1092,-0.1104,-0.1101,-0.1144,-0.1157,-0.1177,-0.1275,-0.1219,-0.1222,-0.1348,-0.1351,-0.1353,-0.1415,0,0,0,0,0,0,-0.0924,-0.0934,-0.0942,-0.0964,-0.0972,-0.1008,-0.102,-0.1026,-0.1077,-0.1083,-0.1134,-0.1145,-0.1146,-0.1171,-0.1181,-0.1278,-0.1225,-0.1347,-0.1349,-0.1352,-0.1411,-0.1419,-0.1426,0,0,0,0,0,-0.092,-0.0915,-0.0942,-0.0951,-0.0984,-0.1009,-0.1012,-0.1039,-0.1078,-0.1088,-0.1098,-0.1146,-0.1199,-0.1173,-0.1184,-0.1286,-0.1345,-0.1349,-0.1352,-0.1408,-0.1418,-0.1426,0,0,0,0,0,0,-0.0878,-0.092,-0.095,-0.096,-0.0999,-0.102,-0.1031,-0.1068,-0.1085,-0.1102,-0.1128,-0.1136,-0.121,-0.1217,-0.1188,-0.1331,-0.1297,-0.1303,-0.1337,-0.1346,-0.1353,-0.1371,-0.1228,0,0,0,0,0,-0.0876,-0.088,-0.0935,-0.0943,-0.0973,-0.1017,-0.1035,-0.1066,-0.1087,-0.11,-0.1101,-0.1144,-0.1223,-0.1255,-0.1283,-0.1336,-0.1297,-0.1419,-0.1427,-0.1433,-0.1454,-0.1465,-0.1476,-0.1365,-0.1365,-0.1365,0,0,-0.0848,-0.0885,-0.0879,-0.0935,-0.0968,-0.1001,-0.1032,-0.1075,-0.1113,-0.1112,-0.1121,-0.1161,-0.1239,-0.1298,-0.1338,-0.1323,-0.1424,-0.1437,-0.1443,-0.146,-0.147,-0.1481,-0.149,-0.1367,-0.1367,-0.1366,0,0,-0.083,-0.0853,-0.0874,-0.0909,-0.0984,-0.1002,-0.1035,-0.1062,-0.1096,-0.1129,-0.1156,-0.1199,-0.129,-0.132,-0.1382,-0.144,-0.1462,-0.1521,-0.1582,-0.1592,-0.1601,-0.1609,-0.1483,-0.1479,-0.1527,-0.1527,-0.1527,0,-0.0821,-0.083,-0.0881,-0.0931,-0.095,-0.1017,-0.1049,-0.1095,-0.1109,-0.1126,-0.1149,-0.127,-0.13,-0.1429,-0.1468,-0.1461,-0.1451,-0.1544,-0.1602,-0.161,-0.1617,-0.1486,-0.1481,-0.1531,-0.153,-0.153,-0.153,0,-0.0828,-0.0837,-0.0853,-0.0925,-0.0969,-0.0982,-0.1073,-0.1093,-0.1149,-0.1179,-0.129,-0.1323,-0.1403,-0.1455,-0.1507,-0.1616,-0.1579,-0.1605,-0.1578,-0.1632,-0.1489,-0.1483,-0.1536,-0.1534,-0.1533,-0.1533,0,0,-0.0806,-0.084,-0.0856,-0.0875,-0.0951,-0.0995,-0.1063,-0.1124,-0.1179,-0.1242,-0.1297,-0.1458,-0.1493,-0.1562,-0.1628,-0.1665,-0.1663,-0.1701,-0.17,-0.1569,-0.1631,-0.1546,-0.1529,-0.1755,-0.1756,-0.1758,-0.1475,0,-0.0794,-0.0838,-0.0867,-0.0901,-0.092,-0.0986,-0.1049,-0.1134,-0.1193,-0.1231,-0.1359,-0.1459,-0.1547,-0.1632,-0.1682,-0.1711,-0.1672,-0.1732,-0.1604,-0.1596,-0.1515,-0.153,-0.1763,-0.1471,-0.1469,-0.1468,-0.1467,0,-0.0798,-0.0821,-0.0846,-0.0882,-0.091,-0.0945,-0.1039,-0.1114,-0.1212,-0.1283,-0.1403,-0.149,-0.1613,-0.1658,-0.1713,-0.1785,-0.1712,-0.1689,-0.1677,-0.1589,-0.1507,-0.1429,-0.1456,-0.1457,-0.1457,-0.1458,-0.1459,0,-0.0757,-0.0799,-0.0804,-0.0818,-0.0897,-0.0933,-0.0989,-0.1105,-0.1175,-0.1318,-0.1367,-0.1527,-0.1597,-0.1649,-0.1656,-0.1719,-0.1623,-0.1657,-0.1454,-0.1439,-0.1568,-0.1564,-0.1593,-0.1594,-0.1594,-0.1595,-0.1596,0,-0.0703,-0.0716,-0.0783,-0.0784,-0.0829,-0.0929,-0.1,-0.1078,-0.1187,-0.1216,-0.141,-0.1433,-0.1628,-0.1609,-0.1614,-0.1522,-0.1572,-0.1454,-0.1396,-0.1584,-0.1586,-0.1556,-0.1555,-0.1584,-0.1587,-0.1589,-0.1591,0,-0.0661,-0.0684,-0.0687,-0.0757,-0.0796,-0.0849,-0.0976,-0.1023,-0.1168,-0.1197,-0.1264,-0.137,-0.1388,-0.1457,-0.1434,-0.1415,-0.1352,-0.1251,-0.1347,-0.1298,-0.1142,-0.1148,-0.1025,-0.102,-0.1017,-0.1013,-0.1011,0,-0.0625,-0.0628,-0.0674,-0.068,-0.0699,-0.08,-0.086,-0.1007,-0.1013,-0.1104,-0.1055,-0.1122,-0.1176,-0.1056,-0.1159,-0.1119,-0.1109,-0.1033,-0.1217,-0.1145,-0.11,-0.1112,-0.1123,-0.1004,-0.1003,-0.1002,-0.1001,0,-0.0565,-0.0586,-0.0599,-0.0608,-0.0636,-0.0685,-0.0726,-0.0738,-0.086,-0.0968,-0.0883,-0.0922,-0.0861,-0.0926,-0.0903,-0.0875,-0.1128,-0.0994,-0.1003,-0.1175,-0.1119,-0.108,-0.1096,-0.0988,-0.099,-0.0991,-0.0992,0,-0.0524,-0.0509,-0.0523,-0.0536,-0.0541,-0.0517,-0.059,-0.058,-0.064,-0.0715,-0.0628,-0.0703,-0.0758,-0.0774,-0.0738,-0.0769,-0.0789,-0.0804,-0.0825,-0.084,-0.0943,-0.0855,-0.0584,0,0,0,0,0,-0.0476,-0.0463,-0.0455,-0.0417,-0.0404,-0.0421,-0.0467,-0.054,-0.061,-0.0516,-0.0594,-0.0544,-0.0578,-0.0598,-0.0602,-0.0672,-0.0799,-0.0675,-0.0828,-0.0914,-0.0929,-0.1086,0,0,0,0,0,0,-0.0438,-0.0432,-0.0432,-0.0322,-0.0278,-0.0262,-0.0296,-0.0358,-0.0316,-0.0394,-0.041,-0.0483,-0.0522,-0.0551,-0.0572,-0.0588,-0.0672,-0.0722,-0.072,-0.0905,-0.0919,-0.0932,-0.1098,0,0,0,0,0]},{"header":{"parameterUnit":"m.s-1","parameterCategory":2,"la1":30.2991,"la2":30.254,"lo1":-89.0895,"lo2":-89.0444,"dy":0.0017,"dx":0.0017,"nx":28,"ny":28,"refTime":"2023-07-25T03:00:00:Z","depth":"4","parameterNumber":3,"parameterNumberName":"V-component_of_CURRENTS"},"data":[0,0,0,0,0,0,0,0,0,0,0,0,0,0,0,0,0,0,0,0,0,0,0,0,0,0,0,0,0,0,0,0,0,0,0,0,0,0,0,0,0,0,0,0,0,0,0,0,0,0,0,0,0,0,0,0,0,0,-0.0205,-0.0206,0,-0.0214,-0.0214,-0.0214,-0.0184,-0.0184,-0.0183,-0.0183,-0.0194,-0.0195,-0.0196,0,0,0,0,0,0,0,0,0,0,0,0,0,-0.0157,-0.0157,-0.0205,-0.0206,-0.0206,-0.0214,-0.0214,-0.0214,-0.0184,-0.0184,-0.0183,-0.0182,-0.0194,-0.0195,-0.0196,0,0,0,0,0,0,0,0,0,0,0,0,0,-0.017,-0.0158,-0.0205,-0.0195,-0.0194,-0.0214,-0.0214,-0.0213,-0.0185,-0.0184,-0.0183,-0.0182,-0.0194,-0.0195,-0.0196,-0.0221,0,0,-0.02,-0.0201,0,0,0,0,0,0,0,0,-0.0169,-0.0171,-0.0196,-0.0196,-0.0195,-0.02,-0.0201,-0.0217,-0.0185,-0.0185,-0.0183,-0.0182,-0.02,-0.02,-0.0199,-0.0221,-0.0222,-0.02,-0.0201,-0.0202,-0.0202,0,0,0,0,0,0,0,-0.0168,-0.017,-0.0205,-0.0197,-0.0196,-0.0188,-0.0189,-0.0204,-0.0194,-0.0185,-0.0183,-0.019,-0.0199,-0.0198,-0.0199,-0.0222,-0.02,-0.0201,-0.0202,-0.0203,-0.0289,-0.029,0,0,0,0,0,0,-0.0176,-0.017,-0.0205,-0.0206,-0.0184,-0.019,-0.019,-0.0197,-0.0194,-0.0194,-0.0191,-0.0189,-0.0196,-0.0198,-0.0199,-0.0245,-0.0202,-0.0203,-0.0203,-0.0287,-0.0289,-0.0291,0,0,0,0,0,0,-0.0174,-0.0179,-0.0205,-0.0191,-0.0194,-0.0192,-0.0199,-0.0197,-0.0204,-0.0199,-0.0198,-0.02,-0.0195,-0.0198,-0.0248,-0.0245,-0.0203,-0.0204,-0.0285,-0.0288,-0.029,-0.0326,0,0,0,0,0,0,-0.0173,-0.0178,-0.0193,-0.0191,-0.0195,-0.0226,-0.02,-0.0198,-0.021,-0.0208,-0.0207,-0.0206,-0.0195,-0.0246,-0.0249,-0.0246,-0.0205,-0.0283,-0.0286,-0.0289,-0.0323,-0.033,-0.0335,0,0,0,0,0,-0.0171,-0.0185,-0.0193,-0.0198,-0.0213,-0.0228,-0.0229,-0.0222,-0.0212,-0.0222,-0.0241,-0.0207,-0.0264,-0.025,-0.0252,-0.0249,-0.0282,-0.0286,-0.0289,-0.0321,-0.0328,-0.0335,0,0,0,0,0,0,-0.0171,-0.0184,-0.0193,-0.0211,-0.0228,-0.0224,-0.0229,-0.0233,-0.0253,-0.0252,-0.0245,-0.0248,-0.0281,-0.0277,-0.026,-0.0284,-0.026,-0.0264,-0.0283,-0.029,-0.0296,-0.0286,-0.0206,0,0,0,0,0,-0.0182,-0.0201,-0.0211,-0.0234,-0.0232,-0.0237,-0.0245,-0.0246,-0.0261,-0.0266,-0.0277,-0.0285,-0.0297,-0.0305,-0.0316,-0.0346,-0.0313,-0.0341,-0.0347,-0.0352,-0.0347,-0.0319,-0.0321,-0.0302,-0.0302,-0.0302,0,0,-0.0199,-0.0204,-0.0221,-0.0237,-0.0238,-0.0261,-0.0237,-0.0251,-0.0284,-0.0268,-0.0316,-0.0313,-0.0313,-0.034,-0.0351,-0.0336,-0.0341,-0.0356,-0.036,-0.0353,-0.0323,-0.0324,-0.0325,-0.0304,-0.0304,-0.0304,0,0,-0.0223,-0.0232,-0.0247,-0.026,-0.0273,-0.0283,-0.0293,-0.0304,-0.0314,-0.0367,-0.0355,-0.0376,-0.0396,-0.0398,-0.0399,-0.0454,-0.0376,-0.0431,-0.0449,-0.0422,-0.0422,-0.0422,-0.0376,-0.0371,-0.0431,-0.0431,-0.0431,0,-0.0234,-0.0259,-0.0259,-0.027,-0.0292,-0.0298,-0.0326,-0.0344,-0.0383,-0.0392,-0.039,-0.0414,-0.0428,-0.0442,-0.0455,-0.0466,-0.0414,-0.0418,-0.0426,-0.0426,-0.0425,-0.0377,-0.0372,-0.0433,-0.0433,-0.0432,-0.0432,0,-0.0268,-0.029,-0.0293,-0.0322,-0.0352,-0.0371,-0.0401,-0.043,-0.0447,-0.0456,-0.0478,-0.0494,-0.0496,-0.05,-0.0495,-0.0487,-0.044,-0.0436,-0.04,-0.0428,-0.0377,-0.0371,-0.0436,-0.0435,-0.0435,-0.0434,0,0,-0.0271,-0.0309,-0.031,-0.034,-0.0377,-0.0407,-0.0459,-0.0495,-0.0516,-0.0537,-0.0557,-0.0576,-0.0545,-0.0546,-0.0528,-0.051,-0.0477,-0.046,-0.0457,-0.04,-0.0374,-0.0289,-0.0273,-0.0447,-0.0446,-0.0446,-0.0337,0,-0.0288,-0.0323,-0.035,-0.0419,-0.044,-0.0474,-0.0525,-0.0566,-0.0582,-0.0606,-0.0593,-0.06,-0.0571,-0.0559,-0.0537,-0.0481,-0.046,-0.0504,-0.0368,-0.0364,-0.0273,-0.0264,-0.0444,-0.0332,-0.033,-0.0329,-0.0328,0,-0.0309,-0.0328,-0.0382,-0.046,-0.0472,-0.0528,-0.0597,-0.0647,-0.0666,-0.0661,-0.0642,-0.0616,-0.0584,-0.0574,-0.0469,-0.0477,-0.0432,-0.0396,-0.0391,-0.0292,-0.0267,-0.0302,-0.0316,-0.0317,-0.0318,-0.0319,-0.032,0,-0.0312,-0.0363,-0.0412,-0.0436,-0.0513,-0.0557,-0.0615,-0.0656,-0.0689,-0.0687,-0.0677,-0.0622,-0.0595,-0.0515,-0.0411,-0.0427,-0.0289,-0.0315,-0.0204,-0.0196,-0.0289,-0.029,-0.0273,-0.0273,-0.0274,-0.0274,-0.0274,0,-0.0325,-0.0364,-0.0416,-0.0444,-0.0515,-0.0576,-0.0654,-0.068,-0.0714,-0.0722,-0.0696,-0.0663,-0.0573,-0.0478,-0.0398,-0.0239,-0.0269,-0.0191,-0.016,-0.0308,-0.0313,-0.0283,-0.0286,-0.027,-0.0271,-0.0272,-0.0272,0,-0.0332,-0.0359,-0.0413,-0.0486,-0.0521,-0.0577,-0.069,-0.0726,-0.0742,-0.0749,-0.0738,-0.0675,-0.0523,-0.0417,-0.0285,-0.0213,-0.0091,-0.0048,-0.018,-0.0161,-0.0026,-0.0032,0.0086,0.009,0.0094,0.0097,0.0099,0,-0.0341,-0.0364,-0.0439,-0.0478,-0.0517,-0.0609,-0.0667,-0.0729,-0.0734,-0.0733,-0.0701,-0.0601,-0.0529,-0.0263,-0.0167,0.002,0.0018,0.008,-0.0011,-0.0005,0.0012,0.0001,-0.001,0.0104,0.0105,0.0106,0.0107,0,-0.0349,-0.0369,-0.041,-0.0475,-0.0541,-0.062,-0.0682,-0.0682,-0.0714,-0.0733,-0.0632,-0.0533,-0.0374,-0.0214,-0.0056,0.0057,0.0051,0.0115,0.0106,0.0021,0.0018,0.0029,0.0015,0.0119,0.0117,0.0116,0.0115,0,-0.0348,-0.0369,-0.0412,-0.0472,-0.0546,-0.0587,-0.0642,-0.0632,-0.065,-0.0613,-0.0574,-0.0457,-0.0398,-0.0193,-0.0044,0.0097,0.0091,0.0099,0.0091,0.0079,0.0041,0.0034,0.0182,0,0,0,0,0,-0.0343,-0.0363,-0.0415,-0.0468,-0.0534,-0.0574,-0.0623,-0.0654,-0.0657,-0.0569,-0.057,-0.0418,-0.0223,-0.0154,0.0004,-0.0,0.0111,0.0187,0.0116,0.0184,0.017,0.0134,0,0,0,0,0,0,-0.0346,-0.038,-0.0397,-0.044,-0.0476,-0.0543,-0.0572,-0.0584,-0.0518,-0.0511,-0.0398,-0.0376,-0.0175,-0.0298,0.0011,0.0046,0.0022,0.0269,0.0272,0.0191,0.0179,0.0168,0.0126,0,0,0,0,0]}]]